Find Qianfan 07-11

NORAD ID: 68646 Int'l Des: 2026-075 Owner: YUANX Country: CN Constellation: spacesail operational
LEOCIRCULARPOLAR

リアルタイム位置

3D地球を読み込み中...

Qianfan 07-11について

説明を読み込み中...

次回通過

Passes for default location (London). Set your location on the main map for personalized predictions.

高度履歴

Loading altitude history...

軌道要素

1 68646U 26075L 26134.04184503 -.02068203 00000-0 -18854+1 0 9990
2 68646 88.9878 324.5521 0008772 126.2404 233.9579 13.87458958 5163
Epoch: May 14, 2026 • Age: 16 hours

現在のステータス

高度 956.3 km
速度 7.38 km/s
衛星直下点 85.82°N, 149.22°W
打ち上げ日 Apr 7, 2026
運用期間 0.1 years
タイプ internet

技術仕様

分類 Payload
質量 267.00 kg
乾燥質量 267.00 kg
総質量 267.00 kg
長さ 0.30 m
直径 3.00 m
スパン 10.00 m
形状 Box+pan
製造者 SECM
バスタイプ Qianfan
フェーズステータス In Orbit
所有者/国 YUANX/CN

Most Searched